TimeCDT,TemperatureF,Dew PointF,Humidity,Sea Level PressureIn,VisibilityMPH,Wind Direction,Wind SpeedMPH,Gust SpeedMPH,PrecipitationIn,Events,Conditions,WindDirDegrees,DateUTC
12:15 AM,78.3,71.1,78,30.06,10.0,SSW,5.8,-,N/A,,Clear,210,2013-08-27 05:15:00
12:35 AM,78.4,70.9,77,30.06,10.0,SSW,6.9,-,N/A,,Clear,210,2013-08-27 05:35:00
12:55 AM,79.0,70.5,75,30.06,10.0,SW,5.8,-,N/A,,Clear,220,2013-08-27 05:55:00
1:15 AM,78.6,70.2,75,30.05,10.0,SW,5.8,-,N/A,,Clear,230,2013-08-27 06:15:00
1:35 AM,77.7,70.2,77,30.05,10.0,SW,5.8,-,N/A,,Clear,230,2013-08-27 06:35:00
1:55 AM,77.4,70.2,78,30.05,10.0,SW,5.8,-,N/A,,Clear,230,2013-08-27 06:55:00
2:15 AM,76.6,70.0,80,30.05,10.0,SW,4.6,-,N/A,,Clear,230,2013-08-27 07:15:00
2:35 AM,75.6,70.2,83,30.05,10.0,SW,4.6,-,N/A,,Clear,220,2013-08-27 07:35:00
2:55 AM,75.7,70.2,83,30.05,10.0,SW,5.8,-,N/A,,Clear,220,2013-08-27 07:55:00
3:15 AM,75.4,70.2,84,30.05,10.0,SW,5.8,-,N/A,,Clear,230,2013-08-27 08:15:00
3:35 AM,75.2,70.2,84,30.04,10.0,SW,4.6,-,N/A,,Clear,230,2013-08-27 08:35:00
3:55 AM,75.2,70.3,85,30.04,10.0,SW,5.8,-,N/A,,Clear,230,2013-08-27 08:55:00
4:15 AM,74.8,70.7,87,30.03,10.0,SW,5.8,-,N/A,,Clear,220,2013-08-27 09:15:00
4:35 AM,74.8,70.7,87,30.04,10.0,SW,5.8,-,N/A,,Clear,220,2013-08-27 09:35:00
4:55 AM,74.5,70.7,88,30.04,10.0,SW,4.6,-,N/A,,Clear,220,2013-08-27 09:55:00
5:15 AM,74.1,70.7,89,30.04,10.0,SW,3.5,-,N/A,,Clear,230,2013-08-27 10:15:00
5:35 AM,73.8,70.7,90,30.04,10.0,SW,3.5,-,N/A,,Clear,220,2013-08-27 10:35:00
5:55 AM,74.3,70.7,88,30.05,10.0,SW,4.6,-,N/A,,Clear,220,2013-08-27 10:55:00
6:15 AM,74.3,70.7,88,30.06,10.0,SW,3.5,-,N/A,,Clear,230,2013-08-27 11:15:00
6:35 AM,73.6,70.7,91,30.06,7.0,SW,4.6,-,N/A,,Clear,220,2013-08-27 11:35:00
6:55 AM,73.6,70.7,91,30.07,7.0,SW,4.6,-,N/A,,Clear,230,2013-08-27 11:55:00
7:15 AM,73.9,71.1,91,30.07,7.0,SW,4.6,-,N/A,,Clear,220,2013-08-27 12:15:00
7:35 AM,75.4,71.6,88,30.07,10.0,SW,5.8,-,N/A,,Clear,230,2013-08-27 12:35:00
7:55 AM,75.9,71.6,86,30.07,10.0,SW,5.8,-,N/A,,Clear,220,2013-08-27 12:55:00
8:15 AM,77.2,71.6,83,30.07,10.0,SW,6.9,-,N/A,,Clear,220,2013-08-27 13:15:00
8:35 AM,79.5,72.0,78,30.07,10.0,SW,8.1,-,N/A,,Clear,230,2013-08-27 13:35:00
8:55 AM,81.5,72.1,73,30.07,10.0,WSW,9.2,-,N/A,,Clear,240,2013-08-27 13:55:00
9:15 AM,82.6,72.0,70,30.07,10.0,WSW,10.4,-,N/A,,Clear,240,2013-08-27 14:15:00
9:35 AM,84.4,72.1,67,30.06,10.0,WSW,12.7,16.1,N/A,,Clear,250,2013-08-27 14:35:00
9:55 AM,84.7,71.4,64,30.07,10.0,WSW,11.5,19.6,N/A,,Clear,250,2013-08-27 14:55:00
10:15 AM,85.6,72.1,64,30.06,10.0,WSW,9.2,-,N/A,,Clear,240,2013-08-27 15:15:00
10:35 AM,86.7,71.4,60,30.06,10.0,WSW,13.8,18.4,N/A,,Clear,250,2013-08-27 15:35:00
10:55 AM,87.6,70.3,56,30.05,10.0,WSW,10.4,-,N/A,,Clear,240,2013-08-27 15:55:00
11:15 AM,88.0,70.0,55,30.05,10.0,WSW,11.5,-,N/A,,Clear,250,2013-08-27 16:15:00
11:35 AM,89.1,70.5,54,30.04,10.0,WSW,9.2,-,N/A,,Clear,250,2013-08-27 16:35:00
11:55 AM,90.0,70.7,53,30.03,10.0,WSW,9.2,-,N/A,,Clear,240,2013-08-27 16:55:00
12:15 PM,91.2,70.5,51,30.02,10.0,WSW,12.7,17.3,N/A,,Clear,250,2013-08-27 17:15:00
12:35 PM,92.3,69.1,46,30.02,10.0,WSW,11.5,16.1,N/A,,Clear,250,2013-08-27 17:35:00
12:55 PM,92.7,69.1,46,30.01,10.0,WSW,11.5,-,N/A,,Clear,250,2013-08-27 17:55:00
1:15 PM,92.7,68.7,45,30.00,10.0,SW,8.1,17.3,N/A,,Clear,230,2013-08-27 18:15:00
1:35 PM,93.4,68.5,44,30.00,10.0,WSW,9.2,17.3,N/A,,Clear,240,2013-08-27 18:35:00
1:55 PM,94.3,68.9,43,29.99,10.0,SW,10.4,16.1,N/A,,Clear,230,2013-08-27 18:55:00
2:15 PM,94.5,67.8,42,29.99,10.0,SW,11.5,16.1,N/A,,Clear,230,2013-08-27 19:15:00
2:35 PM,95.0,66.7,39,29.98,10.0,WSW,12.7,-,N/A,,Clear,250,2013-08-27 19:35:00
2:55 PM,95.0,64.4,36,29.97,10.0,SW,11.5,19.6,N/A,,Clear,230,2013-08-27 19:55:00
3:15 PM,95.5,66.4,38,29.97,10.0,WSW,10.4,17.3,N/A,,Clear,240,2013-08-27 20:15:00
3:35 PM,95.2,65.7,38,29.97,10.0,SSW,11.5,16.1,N/A,,Clear,210,2013-08-27 20:35:00
3:55 PM,95.0,64.2,36,29.96,10.0,SW,11.5,17.3,N/A,,Clear,230,2013-08-27 20:55:00
4:15 PM,95.0,64.0,36,29.96,10.0,SW,11.5,20.7,N/A,,Clear,230,2013-08-27 21:15:00
4:35 PM,94.8,63.3,35,29.95,10.0,SW,13.8,19.6,N/A,,Clear,220,2013-08-27 21:35:00
4:55 PM,94.6,62.1,34,29.95,10.0,SW,12.7,19.6,N/A,,Clear,230,2013-08-27 21:55:00
5:15 PM,94.1,62.8,35,29.95,10.0,SW,10.4,18.4,N/A,,Clear,220,2013-08-27 22:15:00
5:35 PM,93.7,62.6,35,29.95,10.0,SW,8.1,16.1,N/A,,Clear,220,2013-08-27 22:35:00
5:55 PM,93.2,62.1,35,29.95,10.0,SW,11.5,17.3,N/A,,Clear,220,2013-08-27 22:55:00
6:15 PM,92.7,61.9,36,29.95,10.0,SW,8.1,17.3,N/A,,Clear,220,2013-08-27 23:15:00
6:35 PM,91.8,62.6,38,29.95,10.0,SW,9.2,-,N/A,,Clear,220,2013-08-27 23:35:00
6:55 PM,90.9,62.4,39,29.95,10.0,SW,9.2,-,N/A,,Clear,220,2013-08-27 23:55:00
7:15 PM,89.6,62.1,40,29.95,10.0,SW,8.1,-,N/A,,Clear,220,2013-08-28 00:15:00
7:35 PM,88.5,62.1,41,29.95,10.0,SW,8.1,-,N/A,,Clear,220,2013-08-28 00:35:00
7:55 PM,86.9,62.1,43,29.96,10.0,SSW,8.1,-,N/A,,Clear,210,2013-08-28 00:55:00
8:15 PM,86.2,61.9,44,29.96,10.0,SSW,8.1,-,N/A,,Clear,210,2013-08-28 01:15:00
8:35 PM,85.5,62.1,45,29.96,10.0,SSW,6.9,-,N/A,,Clear,210,2013-08-28 01:35:00
8:55 PM,84.6,62.6,48,29.97,10.0,SW,6.9,-,N/A,,Clear,220,2013-08-28 01:55:00
9:15 PM,84.0,62.6,48,29.97,10.0,SW,8.1,-,N/A,,Clear,220,2013-08-28 02:15:00
9:35 PM,83.5,62.2,49,29.97,10.0,SW,8.1,-,N/A,,Clear,220,2013-08-28 02:35:00
9:55 PM,82.6,61.7,49,29.98,10.0,SW,6.9,-,N/A,,Clear,230,2013-08-28 02:55:00
10:15 PM,82.0,61.5,50,29.98,10.0,SW,6.9,-,N/A,,Clear,220,2013-08-28 03:15:00
10:35 PM,81.5,61.5,51,29.98,10.0,SW,6.9,-,N/A,,Clear,220,2013-08-28 03:35:00
10:55 PM,80.8,61.7,52,29.98,10.0,SW,8.1,-,N/A,,Clear,230,2013-08-28 03:55:00
11:15 PM,80.6,61.7,52,29.98,10.0,SW,8.1,-,N/A,,Clear,230,2013-08-28 04:15:00
11:35 PM,80.2,62.1,54,29.98,10.0,SW,8.1,-,N/A,,Clear,230,2013-08-28 04:35:00
11:55 PM,80.4,61.9,53,29.98,10.0,SW,8.1,-,N/A,,Clear,230,2013-08-28 04:55:00